Other Public Products
Issued by NWS Grand Forks, ND

Home | Current Version | Previous Version | Graphics & Text | Print | Product List | Glossary On
Versions: 1 2 3 4 5 6 7 8 9 10 11 12 13 14 15 16 17 18 19 20 21 22 23 24 25 26 27 28 29 30 31 32 33 34 35 36 37 38 39 40 41 42 43 44 45 46 47 48 49 50
000
FPUS83 KFGF 200510
OPUFGF
PRAIRIE TO PINES WEATHER ROUNDUP
NATIONAL WEATHER SERVICE EASTERN NORTH DAKOTA/GRAND FORKS ND
1100 PM CST FRI JAN 19 2018

 **SATELLITE DATA USED TO AUGMENT SKY COVER AT AUTOMATED STATIONS**
 *****  WEATHER ACROSS EASTERN NORTH DAKOTA  *****

CITY           SKY/WX    TMP DP  RH WIND       PRES   REMARKS
GRAND FORKS    MOCLDY    33  28  81 W12       29.65R WCI  24
GRND FORKS AFB FAIR      31  27  84 W8        29.66R WCI  24
GRND FORKS NWS NOT AVBL
BUXTON         NOT AVBL
DEVILS LAKE    FAIR      26  23  88 W10       29.66R WCI  16
FARGO          FAIR      31  27  85 W6        29.69R
WAHPETON ARPT  FAIR      27  23  86 W6        29.72R WCI  20
$$

 *****  WEATHER ACROSS CENTRAL AND WESTERN NORTH DAKOTA  *****

CITY           SKY/WX    TMP DP  RH WIND       PRES   REMARKS
JAMESTOWN      FAIR      32  27  81 W9        29.70R WCI  24
BISMARCK       FAIR      29  28  96 CALM      29.74R
MINOT          FAIR      34  24  67 W16       29.67R WCI  24
MINOT AFB      FAIR      29  24  78 W10       29.65R WCI  20
GARRISON         N/A     31  25  78 W10       29.69R WCI  22
WILLISTON      FAIR      33  27  78 SW12      29.70R WCI  24
DICKINSON      CLOUDY    33  31  92 W9        29.72R
HETTINGER      CLOUDY    34  31  88 W3        29.78R
$$

 *****  OTHER OBSERVATIONS NORTHEAST NORTH DAKOTA  *****

CITY           SKY/WX    TMP DP  RH WIND       PRES   REMARKS
WALHALLA       FAIR      36  28  75 W9        29.61R
LANGDON        FAIR      23  23 100 W10       29.62R WCI  12
CAVALIER         N/A     36  27  69 W8        29.61R
GRAFTON        FAIR      32  28  86 SW14      29.65R WCI  22
CANDO          FAIR      27  27 100 W13       29.66R WCI  16
FORT TOTTEN      N/A     29  25  85 CALM      29.95S
ROLLA          FAIR      32  25  74 W12       29.61R WCI  23
RUGBY          FAIR      21  21 100 W12       29.65S WCI   9
 ***** THE ABOVE OBSERVATIONS ARE NON NWS ARE NOT QUALITY
        CONTROLLED AND MAY MIS-REPORT RAIN FOR SNOW...
$$

 *****  OTHER OBSERVATIONS SOUTHEAST NORTH DAKOTA *****

CITY           SKY/WX    TMP DP  RH WIND       PRES   REMARKS
COOPERSTOWN    FAIR      28  27  93 W10       29.68S WCI  19
VALLEY CITY    FAIR      30  30 100 W14       29.71R WCI  20
OAKES            N/A     28  28 100 SW6       29.72F WCI  22
GWINNER          N/A     28  27  93 W9        29.72R WCI  20
SHEYENNE NWR     N/A     25  25 100 W5        29.95S WCI  19
BUFFALO        NOT AVBL
WYNDMERE       NOT AVBL
 ***** THE ABOVE OBSERVATIONS ARE NON NWS ARE NOT QUALITY
       CONTROLLED AND MAY MIS-REPORT RAIN FOR SNOW...
$$

  *****  WEATHER ACROSS NORTHERN MINNESOTA  *****

CITY           SKY/WX    TMP DP  RH WIND       PRES   REMARKS
FLAG ISLAND    CLOUDY    34  30  86 W6        29.55R
WARROAD        CLOUDY    34  28  80 W9G17     29.59R
ROSEAU         CLOUDY    34  28  80 SW8       29.59R
HALLOCK        FAIR      23  21  93 SW12      29.62R WCI  12
THF RVR FALLS  FAIR      30  27  88 W13       29.65R WCI  20
HALSTAD        NOT AVBL
FOSSTON        FAIR      21  21 100 SW5       29.66R WCI  15
BAUDETTE       CLOUDY    33  30  88 SW5       29.57R
WASKISH        FAIR      30  30 100 SW7       29.61R WCI  23
CROOKSTON      FAIR      30  27  86 W9        29.66R WCI  22
$$
  *****  WEATHER ACROSS CENTRAL AND WEST MINNESOTA  *****

CITY           SKY/WX    TMP DP  RH WIND       PRES   REMARKS
BEMIDJI        FAIR      29  27  92 W7        29.63R WCI  22
PARK RAPIDS    FAIR      27  24  89 W6        29.65R WCI  20
WADENA         FAIR      27  27 100 W7        29.68R WCI  19
DETROIT LAKES  FAIR      32  30  93 W10       29.69R WCI  24
MOORHEAD       FAIR      30  27  86 CALM      29.71R
FERGUS FALLS   FAIR      27  27 100 W5        29.71R FOG     WCI  21
ELBOW LAKE     FAIR      30  28  92 W7        29.71R WCI  23
MORRIS MN      FAIR      30  27  86 NW7       29.71R WCI  23
STAPLES        FAIR      27  25  93 W9        29.67R WCI  17
WHEATON        NOT AVBL
$$
  *****  WEATHER ELSEWHERE ACROSS MINNESOTA  *****

CITY           SKY/WX    TMP DP  RH WIND       PRES   REMARKS
DULUTH         FAIR      36  29  75 NW14      29.58R
INTRNTL FALLS  CLOUDY    34  28  79 W7        29.56R
ELY            CLOUDY    36  30  80 W12G17    29.55R
CLOQUET        FAIR      34  27  75 W8        29.60R
BRAINERD       FAIR      34  28  79 W9        29.66R
HIBBING        CLOUDY    34  29  82 NW14      29.61R WCI  25
ALEXANDRIA     FAIR      31  28  89 NW8       29.69R WCI  23
SAINT CLOUD    FAIR      33  28  81 W5        29.68R
MINNEAPOLIS    MOCLDY    36  31  82 SW5       29.68R
$$

  *****  WEATHER ACROSS SOUTH DAKOTA  *****

CITY           SKY/WX    TMP DP  RH WIND       PRES   REMARKS
SIOUX FALLS    MOCLDY    35  30  82 NW5       29.76R
BROOKINGS      FAIR      33  28  81 W6        29.76R
WATERTOWN      FAIR      29  27  92 SW5       29.73R WCI  24
HURON          FAIR      29  27  92 NW5       29.76R WCI  24
SISSETON         N/A     31  26  82 NW6       29.72R
ABERDEEN       FAIR      23  21  92 SW6       29.74R WCI  16
MITCHELL       FAIR      34  30  85 CALM      29.77S
PIERRE         FAIR      30  28  92 W10       29.77R WCI  21
MOBRIDGE       CLOUDY    35  30  82 CALM      29.73R
RAPID CITY     CLOUDY    35  31  85 CALM      29.77R
$$

  *****  SOME WEATHER IN NEARBY STATES *****

CITY           SKY/WX    TMP DP  RH WIND       PRES   REMARKS
GLASGOW MT     FAIR      25  19  78 W7        29.73R WCI  17
GREAT FALLS MT FAIR      26  18  71 SW12      29.78R WCI  16
CHEYENNE WY    FAIR      41  18  39 W3        29.78R
SCOTTSBLUFF NE FAIR      35  29  78 S3        29.77R
OMAHA NE       FAIR      34  27  75 S6        29.77R
DES MOINES IA  FAIR      38  28  67 SW7       29.77R
DAVENPORT IA   FAIR      41  28  60 SW15      29.80R
CHICAGO IL     CLOUDY    39  28  64 SW17G25   29.76R
EAU CLAIRE WI  FAIR      34  29  82 W3        29.65R
LA CROSSE WI   FAIR      37  29  72 S7        29.68R
$$

  *****  SOME NATIONAL WEATHER *****

CITY           SKY/WX    TMP DP  RH WIND       PRES   REMARKS
LA GUARDIA NY  FAIR      39  19  44 SW13      29.93F
RALEIGH NC     FAIR      33  24  69 CALM      30.15F
ATLANTA GA     FAIR      39  10  30 W6        30.24F
NEW ORLEANS LA MOCLDY    47  31  53 E5        30.27F
OKLAHOMA CITY  CLOUDY    48  44  86 S23       29.90S
ALBUQUERQUE NM FAIR      39  13  34 E3        30.01R
SALT LAKE CITY LGT SNOW  34  32  92 NW10      29.96S VSB 1
LOS ANGELES CA MOCLDY    58  48  69 E5        29.92S
BOISE ID       FAIR      34  26  72 CALM      29.99S
SEATTLE WA     LGT RAIN  45  38  76 S15G23    29.92R
$$

*** WEATHER ACROSS MANITOBA...SASKATCHEWAN AND ONTARIO ***
                ***ONTARIO***

CITY           SKY/WX    TMP DP  RH WIND       PRES   REMARKS
GERALDTON      FLURRIES  30  25  80 NW13G22   29.30R WCI  20
THUNDER BAY    MOCLDY    39  32  75 W21G30    29.43R
SIOUX LOOKOUT  FLURRIES  25  19  80 NW12G18   29.47R WCI  14
TORONTO        MOCLDY    36  21  55 SW18G30   29.65F
BIG TROUT LK   CLEAR     -8 -13  77 N6        29.59R WCI -21
PICKLE LAKE    NOT AVBL
DRYDEN         CLOUDY    27  23  86 W14       29.49R WCI  15
KENORA         CLOUDY    27  23  86 NW6       29.54R WCI  20
$$
                *** MANITOBA***

CITY           SKY/WX    TMP DP  RH WIND       PRES   REMARKS
BRANDON        PTCLDY    21  19  93 W9        29.60R WCI  11
DAUPHIN        CLOUDY    19  18  93 N3        29.61R
ISLAND LAKE    NOT AVBL
PILOT MOUND      N/A     30  25  80 W8          N/A  WCI  23
THE PAS        FLURRIES   9   1  72 E7        29.64R WCI  -3
THOMPSON       CLOUDY    -2  -6  84 NE5       29.73R WCI -12
WINNIPEG       MOCLDY    30  28  93 VRB2      29.58R
LYNN LAKE      CLOUDY    -2  -6  84 E6        29.70R FOG     WCI -14
CHURCHILL      FLURRIES   3   0  85 N10       29.84R WCI -12
GILLAM         FLURRIES   1  -2  85 NE8       29.74R WCI -12
$$
                ***SASKATCHEWAN***

CITY           SKY/WX    TMP DP  RH WIND       PRES   REMARKS
ESTEVAN        PTCLDY    21  18  86 SW8       29.65R WCI  12
KINDERSLEY     PTCLDY    23  18  80 SW5       29.59R WCI  17
LLOYDMINSTER   CLOUDY    25  23  93 W12       29.53R WCI  14
PRINCE ALBERT  CLOUDY    30  23  74 W7        29.54R WCI  23
REGINA         MOCLDY    21  19  93 SW9       29.61R WCI  11
YORKTON        MOCLDY    27  21  80 SW9       29.57R W



USA.gov is the U.S. government's official web portal to all federal, state and local government web resources and services.